TITAN 3C TRANSTAGE DEB, 1722

Orbit data source: Space-Track

TITAN 3C TRANSTAGE DEB, 1722 is space debris in LEO originally from a launch on Fri, 15 Oct 1965 UTC launched from the Air Force Eastern Test Range (AFETR). Debris objects in space refer to the collection of defunct objects orbiting the Earth. Examples of debris include non-operational satellites, rocket bodies, and fragments generated from explosions, collisions, or faulty payload assembly.

Loading next visibility...
Identifier
1722, 1965-082CD
Orbit
LEO
Country
Flag of USUS
Related business
Manufacturer
Unknown
Mission
Spacecraft
Bus & Motor
Unknown
Mass
Unknown
Launch date (UTC)
1965-10-15 (60 years ago)
Launch vehicle
Unknown
Launch site
Air Force Eastern Test Range (AFETR)
Object type
Payload
Rocket body
Debris
Shape & HBR
Unknown shape, 0.2 m
Radar Cross Section
Small (<0.1 m²)

Expand to show TLE details & history
Last TLE update: 5 hours ago

TLE from 5 hours ago
0 TITAN 3C TRANSTAGE DEB
1 01722U 65082CD  26072.64066351  .00000773  00000-0  13858-3 0  9996
2 01722  32.4172 159.3731 0027276  11.6102 348.5173 14.63940596184996
Epoch: 2026-03-13T15:22Z
TLE epoch observation values (Epoch: 2026-03-13T15:22:33.327Z)
Latitude
-0.00003°
Longitude
117.46091°
Altitude
660.295 km
Speed
7.539 km/s
True Right ascension
10h 37m 29s
True Declination
0° 00' 00"
Sunlit
Object was in full shadow at epoch
Visualization orbit readout
Latitude
Unknown
Longitude
Unknown
Altitude
Unknown
Speed
Unknown
Apparent Right ascension
Unknown
Apparent Declination
Unknown
Sunlit
N/A
Visualization observer readout
Local Sidereal Time
00:31:50
Azimuth
Unknown
Elevation
Unknown
Doppler factor
Unknown
Orbital elements
Apogee altitude
703.297 km
Perigee altitude
664.771 km
Semi-major axis
7,062.171 km
Eccentricity
0.00273
Inclination
32.4172°
RAAN
159.3731°
Arg. of periapsis
11.6102°
True anomaly
348.45487°
Mean anomaly
348.5173°
Eccentric anomaly
348.48611°
Mean motion
3.65709 °/min
Orbital period
98.44 mins
BSTAR
0.00013858

Documentation

Showing up to 5 results
|